Project,Study,Ord_Occ,Event_Num,Cast_ID,Date_Time_UTC,Date_Time_PST,Lat_Dec,Lon_Dec,Sta_ID,Line,Sta,Depth,Pressure,PrQ,Temp1,Temp1Q,Temp2,Temp2Q,TempAve,Salt1,Salt1Q,Salt1_Corr,Salt2,Salt2Q,Salt2_Corr,SaltAve_Corr,Ox1,Ox1Q,Ox1_CruiseCorr,Ox1_StaCorr,Ox2,Ox2Q,Ox2_CruiseCorr,Ox2_StaCorr,OxAve_StaCorr,Ox1uM,Ox1uM_CruiseCorr,Ox1uM_StaCorr,Ox2uM,Ox2uM_CruiseCorr,Ox2uM_StaCorr,OxAveuM_StaCorr,FluorV,FluorQ,EstChl_CruiseCorr,EstChl_StaCorr,ISUSV,ISUSQ,EstNO3_CruiseCorr,EstNO3_StaCorr,SigThetaTS1,SigThetaTS1Q,SigThetaTS2,SigThetaTS2Q,BAT,XMiss,TransQ,pH,pHQ,SPAR,SPARQ,PAR,PARQ,PoT1,PoT2,DynHt,SVA,OxSat1,OxSat2,BTL_Depth,BTL_Temp,SaltB,OxB,OxBuM,Chl-a,Phaeo,NO3,NO2,NH4,PO4,SIL
CalCOFI,2105SH,006,,2105_006d,05-May-2021 10:17:30,05-May-2021 02:17:30,32.34848,-118.55485,093.3 045.0,093.3,045.0,3.000,3.021,,16.3557,,16.3443,,16.3500,33.6617,,33.6629,33.6621,,33.6640,33.6635,5.6150,,5.9383,5.9476,5.6902,,5.9533,5.9426,5.9451,244.738,258.3479,203.5606,248.011,269.4462,205.3241,204.4424,0.1291,,0.7219,0.4036,2.6622,,0.0000,,24.6373,,24.6402,,,,,,,,,,,16.3552,16.3438,0.0041,329.408,100.480,101.801,3,16.650,33.6609,5.962,259.88,0.432,0.152,0.24,0.00,0.00,0.25,3.41
CalCOFI,2105SH,006,,2105_006d,05-May-2021 10:17:39,05-May-2021 02:17:39,32.34848,-118.55482,093.3 045.0,093.3,045.0,4.000,4.028,,16.3406,,16.3420,,16.3413,33.6625,,33.6637,33.6626,,33.6645,33.6641,5.6266,,5.9504,5.9600,5.6939,,5.9571,5.9464,5.9532,245.240,258.8727,203.9507,248.173,269.9884,205.4506,204.7007,0.1276,,0.7114,0.3985,2.6630,,0.0000,,24.6414,,24.6412,,,,,,,,,,,16.3400,16.3413,0.0100,329.045,100.657,101.863,,,,,,,,,,,,
CalCOFI,2105SH,006,,2105_006d,05-May-2021 10:17:43,05-May-2021 02:17:43,32.34850,-118.55482,093.3 045.0,093.3,045.0,5.000,5.035,,16.3521,,16.3530,,16.3526,33.6618,,33.6630,33.6633,,33.6652,33.6641,5.6156,,5.9389,5.9483,5.6889,,5.9520,5.9412,5.9448,244.764,258.3751,203.5808,247.955,269.4743,205.2804,204.4306,0.1343,,0.7585,0.4213,2.6635,,0.0000,,24.6383,,24.6392,,,,,,,,,,,16.3513,16.3522,0.0135,329.377,100.483,101.796,,,,,,,,,,,,
CalCOFI,2105SH,006,,2105_006d,05-May-2021 10:17:44,05-May-2021 02:17:44,32.34850,-118.55482,093.3 045.0,093.3,045.0,6.000,6.042,,16.3679,,16.3720,,16.3700,33.6632,,33.6644,33.6632,,33.6651,33.6648,5.5909,,5.9131,5.9220,5.6763,,5.9389,5.9280,5.9250,243.688,257.2502,202.7448,247.408,268.3122,204.8535,203.7992,0.1246,,0.6902,0.3883,2.6639,,0.0000,,24.6357,,24.6348,,,,,,,,,,,16.3670,16.3711,0.0169,329.655,100.073,101.609,,,,,,,,,,,,
CalCOFI,2105SH,006,,2105_006d,05-May-2021 10:17:46,05-May-2021 02:17:46,32.34850,-118.55482,093.3 045.0,093.3,045.0,7.000,7.049,,16.3637,,16.3659,,16.3648,33.6630,,33.6642,33.6631,,33.6650,33.6646,5.6155,,5.9388,5.9482,5.7012,,5.9647,5.9541,5.9512,244.760,258.3709,203.5777,248.495,269.4700,205.7019,204.6398,0.1264,,0.7029,0.3945,2.6646,,0.0000,,24.6366,,24.6361,,,,,,,,,,,16.3626,16.3648,0.0202,329.605,100.505,102.043,,,,,,,,,,,,
CalCOFI,2105SH,006,,2105_006d,05-May-2021 10:17:48,05-May-2021 02:17:48,32.34849,-118.55482,093.3 045.0,093.3,045.0,8.000,8.057,,16.1638,,16.1257,,16.1448,33.6749,,33.6761,33.6551,,33.6570,33.6666,5.6707,,5.9965,6.0068,5.7524,,6.0177,6.0078,6.0073,247.149,260.8684,205.4339,250.714,272.0501,207.4338,206.4339,0.1456,,0.8374,0.4598,2.6657,,0.0000,,24.6913,,24.6848,,,,,,,,,,,16.1625,16.1244,0.0235,324.420,101.103,102.471,,,,,,,,,,,,
CalCOFI,2105SH,006,,2105_006d,05-May-2021 10:17:49,05-May-2021 02:17:49,32.34849,-118.55482,093.3 045.0,093.3,045.0,9.000,9.064,,15.8629,,15.8575,,15.8602,33.6710,,33.6722,33.6608,,33.6627,33.6675,5.7132,,6.0410,6.0520,5.7797,,6.0460,6.0365,6.0443,248.986,262.7888,206.8613,251.889,274.0341,208.3509,207.6061,0.2159,,1.3145,0.6989,2.6666,,0.0000,,24.7567,,24.7501,,,,,,,,,,,15.8615,15.8560,0.0267,318.228,101.259,102.423,,,,,,,,,,,,
CalCOFI,2105SH,006,,2105_006d,05-May-2021 10:17:53,05-May-2021 02:17:53,32.34850,-118.55482,093.3 045.0,093.3,045.0,10.000,10.071,,15.7602,,15.7599,,15.7601,33.6653,,33.6665,33.6628,,33.6647,33.6656,5.7217,,6.0499,6.0610,5.7863,,6.0528,6.0434,6.0522,249.351,263.1703,207.1449,252.171,274.4283,208.5710,207.8580,0.2338,,1.4322,0.7598,2.6685,,0.0000,,24.7755,,24.7737,,,,,,,,,,,15.7586,15.7584,0.0299,316.460,101.203,102.345,,,,,,,,,,,,
CalCOFI,2105SH,006,,2105_006d,05-May-2021 10:17:54,05-May-2021 02:17:54,32.34850,-118.55482,093.3 045.0,093.3,045.0,11.000,11.078,,15.7178,,15.7189,,15.7184,33.6692,,33.6704,33.6642,,33.6661,33.6683,5.6755,,6.0015,6.0119,5.7822,,6.0486,6.0391,6.0255,247.338,261.0659,205.5808,251.987,272.2542,208.4274,207.0041,0.2565,,1.5793,0.8371,2.6690,,0.0000,,24.7880,,24.7840,,,,,,,,,,,15.7161,15.7172,0.0331,315.303,100.305,102.189,11,16.120,,,260.19,0.718,0.267,0.71,0.028,0.00,0.30,3.74
CalCOFI,2105SH,006,,2105_006d,05-May-2021 10:17:55,05-May-2021 02:17:55,32.34850,-118.55482,093.3 045.0,093.3,045.0,12.000,12.085,,15.7018,,15.7010,,15.7014,33.6689,,33.6701,33.6655,,33.6674,33.6688,5.7036,,6.0309,6.0418,5.7796,,6.0459,6.0364,6.0391,248.560,262.3434,206.5303,251.874,273.5740,208.3392,207.4348,0.2468,,1.5167,0.8041,2.6695,,0.0000,,24.7914,,24.7890,,,,,,,,,,,15.7000,15.6991,0.0362,315.010,100.770,102.109,,,,,,,,,,,,
CalCOFI,2105SH,006,,2105_006d,05-May-2021 10:17:57,05-May-2021 02:17:57,32.34850,-118.55482,093.3 045.0,093.3,045.0,13.000,13.092,,15.6686,,15.6683,,15.6685,33.6705,,33.6717,33.6660,,33.6679,33.6698,5.7185,,6.0465,6.0576,5.7882,,6.0548,6.0454,6.0515,249.209,263.0219,207.0346,252.246,274.2749,208.6296,207.8321,0.2670,,1.6464,0.8728,2.6698,,0.0000,,24.8001,,24.7968,,,,,,,,,,,15.6666,15.6663,0.0394,314.212,100.968,102.195,,,,,,,,,,,,
CalCOFI,2105SH,006,,2105_006d,05-May-2021 10:17:58,05-May-2021 02:17:58,32.34850,-118.55482,093.3 045.0,093.3,045.0,14.000,14.099,,15.6138,,15.6142,,15.6140,33.6725,,33.6737,33.6674,,33.6693,33.6715,5.7368,,6.0656,6.0771,5.7933,,6.0601,6.0508,6.0640,250.003,263.8519,207.6515,252.467,275.1324,208.8020,208.2268,0.2732,,1.6859,0.8939,2.6698,,0.0000,,24.8139,,24.8099,,,,,,,,,,,15.6117,15.6120,0.0426,312.928,101.183,102.178,,,,,,,,,,,,
CalCOFI,2105SH,006,,2105_006d,05-May-2021 10:18:00,05-May-2021 02:18:00,32.34850,-118.55482,093.3 045.0,093.3,045.0,15.000,15.106,,15.5364,,15.5368,,15.5366,33.6744,,33.6756,33.6707,,33.6726,33.6741,5.7385,,6.0674,6.0789,5.7945,,6.0613,6.0520,6.0655,250.072,263.9241,207.7051,252.512,275.2070,208.8372,208.2712,0.2823,,1.7434,0.9248,2.6685,,0.0000,,24.8326,,24.8297,,,,,,,,,,,15.5341,15.5345,0.0457,311.179,101.059,102.044,,,,,,,,,,,,
CalCOFI,2105SH,006,,2105_006d,05-May-2021 10:18:03,05-May-2021 02:18:03,32.34850,-118.55482,093.3 045.0,093.3,045.0,16.000,16.113,,15.5227,,15.5232,,15.5230,33.6745,,33.6757,33.6723,,33.6742,33.6750,5.7059,,6.0333,6.0442,5.7912,,6.0579,6.0486,6.0464,248.650,262.4375,206.6002,252.369,273.6712,208.7256,207.6629,0.2584,,1.5914,0.8435,2.6642,,0.0000,,24.8358,,24.8340,,,,,,,,,,,15.5202,15.5208,0.0488,310.906,100.458,101.960,,,,,,,,,,,,
CalCOFI,2105SH,006,,2105_006d,05-May-2021 10:18:04,05-May-2021 02:18:04,32.34850,-118.55482,093.3 045.0,093.3,045.0,17.000,17.121,,15.4811,,15.4810,,15.4811,33.6789,,33.6801,33.6734,,33.6753,33.6777,5.7001,,6.0273,6.0381,5.7558,,6.0213,6.0114,6.0248,248.394,262.1699,206.4013,250.824,273.3947,207.5197,206.9605,0.2590,,1.5953,0.8456,2.6581,,0.0000,,24.8485,,24.8442,,,,,,,,,,,15.4785,15.4784,0.0520,309.733,100.276,101.253,,,,,,,,,,,,
CalCOFI,2105SH,006,,2105_006d,05-May-2021 10:18:06,05-May-2021 02:18:06,32.34850,-118.55482,093.3 045.0,093.3,045.0,18.000,18.128,,15.3687,,15.3677,,15.3682,33.6858,,33.6870,33.6776,,33.6795,33.6833,5.5898,,5.9119,5.9208,5.6151,,5.8755,5.8638,5.8923,243.580,257.1373,202.6609,244.685,268.1956,202.7282,202.6946,0.2687,,1.6573,0.8786,2.6452,,0.0000,,24.8787,,24.8726,,,,,,,,,,,15.3659,15.3650,0.0551,306.886,98.122,98.560,,,,,,,,,,,,
CalCOFI,2105SH,006,,2105_006d,05-May-2021 10:18:08,05-May-2021 02:18:08,32.34850,-118.55482,093.3 045.0,093.3,045.0,19.000,19.135,,14.5692,,14.5526,,14.5609,33.7474,,33.7486,33.6882,,33.6901,33.7194,5.5572,,5.8778,5.8862,5.5797,,5.8389,5.8266,5.8564,242.105,255.5954,201.5148,243.099,266.6026,201.4903,201.5026,0.3046,,1.8827,1.0007,2.6267,,0.0000,,25.0993,,25.0571,,,,,,,,,,,14.5664,14.5498,0.0581,285.898,96.040,96.363,,,,,,,,,,,,
CalCOFI,2105SH,006,,2105_006d,05-May-2021 10:18:10,05-May-2021 02:18:10,32.34850,-118.55482,093.3 045.0,093.3,045.0,20.000,20.142,,13.7807,,13.7787,,13.7797,33.7582,,33.7594,33.7179,,33.7198,33.7396,5.5682,,5.8893,5.8979,5.5853,,5.8447,5.8325,5.8652,242.548,256.0585,201.8590,243.298,267.0810,201.6456,201.7523,0.3081,,1.9043,1.0126,2.6139,,0.0000,,25.2735,,25.2428,,,,,,,,,,,13.7779,13.7759,0.0609,269.321,94.719,94.982,,,,,,,,,,,,
CalCOFI,2105SH,006,,2105_006d,05-May-2021 10:18:11,05-May-2021 02:18:11,32.34850,-118.55482,093.3 045.0,093.3,045.0,21.000,21.149,,13.5103,,13.5072,,13.5088,33.7623,,33.7635,33.7232,,33.7251,33.7443,5.5327,,5.8522,5.8602,5.5846,,5.8439,5.8317,5.8460,240.986,254.4256,200.6453,243.255,265.3941,201.6121,201.1287,0.3079,,1.9031,1.0119,2.6022,,0.0000,,25.3321,,25.3025,,,,,,,,,,,13.5074,13.5043,0.0635,263.771,93.600,94.448,,,,,,,,,,,,
CalCOFI,2105SH,006,,2105_006d,05-May-2021 10:18:12,05-May-2021 02:18:12,32.34850,-118.55481,093.3 045.0,093.3,045.0,22.000,22.156,,13.1916,,13.1903,,13.1910,33.7663,,33.7675,33.7363,,33.7382,33.7529,5.5375,,5.8572,5.8653,5.6076,,5.8678,5.8559,5.8606,241.181,254.6294,200.7968,244.236,265.6047,202.3778,201.5873,0.3137,,1.9389,1.0316,2.5870,,0.0000,,25.3995,,25.3766,,,,,,,,,,,13.1886,13.1873,0.0662,257.372,93.073,94.230,,,,,,,,,,,,
CalCOFI,2105SH,006,,2105_006d,05-May-2021 10:18:15,05-May-2021 02:18:15,32.34850,-118.55480,093.3 045.0,093.3,045.0,23.000,23.163,,13.1321,,13.0804,,13.1063,33.7545,,33.7557,33.7466,,33.7485,33.7521,5.4418,,5.7571,5.7635,5.4728,,5.7281,5.7144,5.7390,237.012,250.2711,197.5576,238.359,261.1021,197.7908,197.6742,0.3130,,1.9345,1.0293,2.5314,,0.0000,,25.4023,,25.4066,,,,,,,,,,,13.1290,13.0773,0.0688,257.132,91.346,91.763,,,,,,,,,,,,
CalCOFI,2105SH,006,,2105_006d,05-May-2021 10:18:17,05-May-2021 02:18:17,32.34850,-118.55480,093.3 045.0,093.3,045.0,24.000,24.171,,12.9352,,12.9348,,12.9350,33.7737,,33.7749,33.7503,,33.7522,33.7636,5.2202,,5.5254,5.5280,5.1984,,5.4439,5.4264,5.4772,227.346,240.1663,190.0471,226.402,250.6628,188.4583,189.2527,0.3087,,1.9080,1.0146,2.4826,,0.0000,,25.4564,,25.4384,,,,,,,,,,,12.9319,12.9315,0.0713,252.009,87.283,86.905,,,,,,,,,,,,
CalCOFI,2105SH,006,,2105_006d,05-May-2021 10:18:19,05-May-2021 02:18:19,32.34850,-118.55480,093.3 045.0,093.3,045.0,25.000,25.178,,12.6586,,12.6588,,12.6587,33.7837,,33.7849,33.7580,,33.7599,33.7724,4.9977,,5.2927,5.2915,4.9623,,5.1994,5.1787,5.2351,217.642,230.0217,182.5072,216.106,240.1825,180.4223,181.4648,0.3633,,2.2380,1.2004,2.4497,,0.0000,,25.5185,,25.4986,,,,,,,,,,,12.6552,12.6555,0.0738,246.118,83.092,82.490,25,13.042,,, ,,,,,,,
CalCOFI,2105SH,006,,2105_006d,05-May-2021 10:18:20,05-May-2021 02:18:20,32.34850,-118.55480,093.3 045.0,093.3,045.0,26.000,26.185,,12.2124,,12.2163,,12.2144,33.7914,,33.7926,33.7563,,33.7582,33.7754,4.7873,,5.0727,5.0679,4.8029,,5.0342,5.0114,5.0397,208.462,220.4250,175.3744,209.145,230.2680,174.9892,175.1818,0.2917,,1.8024,0.9568,2.4066,,0.0000,,25.6106,,25.5826,,,,,,,,,,,12.2090,12.2129,0.0763,237.367,78.862,79.107,,,,,,,,,,,,
CalCOFI,2105SH,006,,2105_006d,05-May-2021 10:18:22,05-May-2021 02:18:22,32.34850,-118.55480,093.3 045.0,093.3,045.0,27.000,27.192,,11.8933,,11.8954,,11.8944,33.7799,,33.7811,33.7575,,33.7594,33.7703,4.6276,,4.9056,4.8981,4.6725,,4.8992,4.8745,4.8863,201.498,213.1448,169.9634,203.455,222.7469,170.5482,170.2558,0.2263,,1.3831,0.7343,2.3553,,0.0000,,25.6623,,25.6445,,,,,,,,,,,11.8899,11.8920,0.0786,232.466,75.716,76.442,,,,,,,,,,,,
CalCOFI,2105SH,006,,2105_006d,05-May-2021 10:18:24,05-May-2021 02:18:24,32.34850,-118.55480,093.3 045.0,093.3,045.0,28.000,28.199,,11.7196,,11.7210,,11.7203,33.7770,,33.7782,33.7572,,33.7591,33.7687,4.5427,,4.8169,4.8079,4.6109,,4.8354,4.8099,4.8089,197.793,209.2716,167.0846,200.767,218.7455,168.4502,167.7674,0.1911,,1.1489,0.6146,2.3040,,0.0000,,25.6925,,25.6768,,,,,,,,,,,11.7160,11.7175,0.0809,229.612,74.052,75.157,,,,,,,,,,,,
CalCOFI,2105SH,006,,2105_006d,05-May-2021 10:18:26,05-May-2021 02:18:26,32.34851,-118.55480,093.3 045.0,093.3,045.0,29.000,29.206,,11.6249,,11.6252,,11.6251,33.7731,,33.7743,33.7598,,33.7617,33.7680,4.4970,,4.7691,4.7593,4.5839,,4.8074,4.7816,4.7705,195.801,207.1892,165.5368,199.589,216.5941,167.5307,166.5338,0.1749,,1.0391,0.5595,2.2535,,0.0000,,25.7071,,25.6967,,,,,,,,,,,11.6212,11.6215,0.0833,228.243,73.159,74.568,,,,,,,,,,,,
CalCOFI,2105SH,006,,2105_006d,05-May-2021 10:18:28,05-May-2021 02:18:28,32.34852,-118.55480,093.3 045.0,093.3,045.0,30.000,30.214,,11.5940,,11.5946,,11.5943,33.7726,,33.7738,33.7626,,33.7645,33.7692,4.4445,,4.7142,4.7035,4.5093,,4.7301,4.7033,4.7034,193.516,204.8004,163.7614,196.339,214.1263,164.9941,164.3778,0.1581,,0.9239,0.5023,2.1978,,0.0000,,25.7124,,25.7045,,,,,,,,,,,11.5902,11.5908,0.0855,227.760,72.259,73.308,,,,,,,,,,,,
CalCOFI,2105SH,006,,2105_006d,05-May-2021 10:18:30,05-May-2021 02:18:30,32.34852,-118.55480,093.3 045.0,093.3,045.0,31.000,31.221,,11.5317,,11.5327,,11.5322,33.7760,,33.7772,33.7659,,33.7678,33.7725,4.3624,,4.6283,4.6163,4.4422,,4.6606,4.6328,4.6246,189.940,201.0621,160.9829,193.415,210.2642,162.7119,161.8474,0.1466,,0.8443,0.4632,2.1408,,0.0000,,25.7265,,25.7186,,,,,,,,,,,11.5278,11.5288,0.0878,226.438,70.832,72.125,,,,,,,,,,,,
CalCOFI,2105SH,006,,2105_006d,05-May-2021 10:18:32,05-May-2021 02:18:32,32.34852,-118.55480,093.3 045.0,093.3,045.0,32.000,32.228,,11.4480,,11.4496,,11.4488,33.7756,,33.7768,33.7668,,33.7687,33.7728,4.3000,,4.5630,4.5499,4.3640,,4.5796,4.5508,4.5504,187.217,198.2155,158.8671,190.006,207.3234,160.0512,159.4592,0.1364,,0.7732,0.4285,2.0847,,0.0000,,25.7417,,25.7345,,,,,,,,,,,11.4440,11.4456,0.0901,225.019,69.694,70.730,32,11.332,,,194.57,0.643,0.579,15.35,0.335,0.56,1.33,15.14
CalCOFI,2105SH,006,,2105_006d,05-May-2021 10:18:34,05-May-2021 02:18:34,32.34852,-118.55479,093.3 045.0,093.3,045.0,33.000,33.235,,11.4054,,11.4053,,11.4054,33.7764,,33.7776,33.7684,,33.7703,33.7740,4.2590,,4.5202,4.5064,4.3349,,4.5495,4.5202,4.5133,185.431,196.3484,157.4794,188.738,205.3945,159.0615,158.2705,0.1279,,0.7135,0.3996,2.0615,,0.0000,,25.7501,,25.7439,,,,,,,,,,,11.4013,11.4012,0.0924,224.246,68.968,70.194,,,,,,,,,,,,
CalCOFI,2105SH,006,,2105_006d,05-May-2021 10:18:35,05-May-2021 02:18:35,32.34852,-118.55478,093.3 045.0,093.3,045.0,34.000,34.242,,11.3807,,11.3817,,11.3812,33.7782,,33.7794,33.7723,,33.7742,33.7768,4.2463,,4.5069,4.4929,4.3282,,4.5425,4.5132,4.5031,184.878,195.7703,157.0497,188.443,204.7973,158.8313,157.9405,0.1289,,0.7205,0.4030,2.0450,,0.0000,,25.7560,,25.7512,,,,,,,,,,,11.3765,11.3775,0.0946,223.703,68.727,70.051,,,,,,,,,,,,
CalCOFI,2105SH,006,,2105_006d,05-May-2021 10:18:37,05-May-2021 02:18:37,32.34852,-118.55478,093.3 045.0,093.3,045.0,35.000,35.250,,11.3727,,11.3731,,11.3729,33.7786,,33.7798,33.7739,,33.7758,33.7778,4.2487,,4.5094,4.4954,4.3154,,4.5293,4.4998,4.4976,184.981,195.8779,157.1298,187.887,204.9085,158.3973,157.7636,0.1261,,0.7008,0.3934,2.0241,,0.0000,,25.7578,,25.7541,,,,,,,,,,,11.3683,11.3688,0.0969,223.557,68.754,69.833,,,,,,,,,,,,
CalCOFI,2105SH,006,,2105_006d,05-May-2021 10:18:39,05-May-2021 02:18:39,32.34852,-118.55478,093.3 045.0,093.3,045.0,36.000,36.257,,11.3641,,11.3647,,11.3644,33.7789,,33.7801,33.7751,,33.7770,33.7786,4.2096,,4.4685,4.4539,4.2430,,4.4543,4.4238,4.4389,183.278,194.0976,155.8065,184.735,203.0693,155.9372,155.8719,0.1220,,0.6719,0.3795,1.9985,,0.0000,,25.7596,,25.7566,,,,,,,,,,,11.3596,11.3602,0.0991,223.407,68.109,68.650,,,,,,,,,,,,
CalCOFI,2105SH,006,,2105_006d,05-May-2021 10:18:41,05-May-2021 02:18:41,32.34852,-118.55478,093.3 045.0,093.3,045.0,37.000,37.264,,11.3436,,11.3441,,11.3439,33.7827,,33.7839,33.7787,,33.7806,33.7823,4.1000,,4.3539,4.3374,4.1059,,4.3123,4.2799,4.3087,178.508,189.1111,152.1003,178.763,197.9176,151.2760,151.6882,0.1179,,0.6428,0.3655,1.9800,,0.0000,,25.7664,,25.7632,,,,,,,,,,,11.3390,11.3395,0.1014,222.788,66.310,66.403,,,,,,,,,,,,
CalCOFI,2105SH,006,,2105_006d,05-May-2021 10:18:43,05-May-2021 02:18:43,32.34852,-118.55478,093.3 045.0,093.3,045.0,38.000,38.271,,11.2633,,11.2639,,11.2636,33.7988,,33.8000,33.7923,,33.7942,33.7971,3.9289,,4.1749,4.1555,3.9561,,4.1571,4.1227,4.1391,171.051,181.3155,146.3062,172.237,189.8641,146.1825,146.2444,0.1070,,0.5653,0.3285,1.9553,,0.0000,,25.7935,,25.7884,,,,,,,,,,,11.2586,11.2592,0.1036,220.230,63.440,63.877,,,,,,,,,,,,
CalCOFI,2105SH,006,,2105_006d,05-May-2021 10:18:45,05-May-2021 02:18:45,32.34852,-118.55478,093.3 045.0,093.3,045.0,39.000,39.279,,11.1575,,11.1581,,11.1578,33.8126,,33.8138,33.8061,,33.8080,33.8109,3.8345,,4.0762,4.0552,3.9006,,4.0996,4.0645,4.0599,166.938,177.0158,143.1105,169.817,185.4220,144.2937,143.7021,0.0856,,0.4114,0.2557,1.9290,,0.0000,,25.8235,,25.8182,,,,,,,,,,,11.1527,11.1533,0.1058,217.401,61.782,62.845,,,,,,,,,,,,
CalCOFI,2105SH,006,,2105_006d,05-May-2021 10:18:47,05-May-2021 02:18:47,32.34852,-118.55478,093.3 045.0,093.3,045.0,40.000,40.286,,11.0988,,11.0997,,11.0993,33.8159,,33.8171,33.8107,,33.8126,33.8149,3.7776,,4.0167,3.9947,3.8300,,4.0265,3.9904,3.9926,164.459,174.4242,141.1843,166.739,182.7447,141.8913,141.5378,0.0813,,0.3802,0.2410,1.8992,,0.0000,,25.8366,,25.8324,,,,,,,,,,,11.0939,11.0948,0.1080,216.171,60.790,61.632,,,,,,,,,,,,
CalCOFI,2105SH,006,,2105_006d,05-May-2021 10:18:49,05-May-2021 02:18:49,32.34852,-118.55478,093.3 045.0,093.3,045.0,41.000,41.293,,11.0448,,11.0453,,11.0451,33.8205,,33.8217,33.8159,,33.8178,33.8198,3.6552,,3.8887,3.8646,3.6966,,3.8883,3.8504,3.8575,159.128,168.8512,137.0421,160.929,176.9872,137.3566,137.1994,0.0788,,0.3620,0.2325,1.8656,,0.0000,,25.8499,,25.8462,,,,,,,,,,,11.0398,11.0403,0.1102,214.925,58.755,59.419,,,,,,,,,,,,
CalCOFI,2105SH,006,,2105_006d,05-May-2021 10:18:50,05-May-2021 02:18:50,32.34852,-118.55478,093.3 045.0,093.3,045.0,42.000,42.300,,10.9819,,10.9807,,10.9813,33.8292,,33.8304,33.8225,,33.8244,33.8274,3.5824,,3.8126,3.7872,3.6256,,3.8148,3.7759,3.7816,155.957,165.5362,134.5783,157.835,173.5625,134.9417,134.7600,0.0772,,0.3504,0.2271,1.8414,,0.0000,,25.8679,,25.8630,,,,,,,,,,,10.9768,10.9756,0.1123,213.237,57.511,58.199,,,,,,,,,,,,
CalCOFI,2105SH,006,,2105_006d,05-May-2021 10:18:52,05-May-2021 02:18:52,32.34852,-118.55478,093.3 045.0,093.3,045.0,43.000,43.308,,10.9067,,10.9061,,10.9064,33.8333,,33.8345,33.8274,,33.8293,33.8319,3.5157,,3.7428,3.7163,3.5792,,3.7667,3.7272,3.7218,153.049,162.4962,132.3188,155.816,170.4218,133.3659,132.8424,0.0727,,0.3176,0.2118,1.8161,,0.0000,,25.8846,,25.8801,,,,,,,,,,,10.9015,10.9009,0.1145,211.668,56.350,57.366,,,,,,,,,,,,
CalCOFI,2105SH,006,,2105_006d,05-May-2021 10:18:54,05-May-2021 02:18:54,32.34852,-118.55478,093.3 045.0,093.3,045.0,44.000,44.315,,10.8354,,10.8356,,10.8355,33.8352,,33.8364,33.8299,,33.8318,33.8341,3.4701,,3.6951,3.6679,3.5194,,3.7048,3.6644,3.6662,151.061,160.4180,130.7741,153.210,168.2748,131.3319,131.0530,0.0668,,0.2744,0.1917,1.7796,,0.0000,,25.8988,,25.8946,,,,,,,,,,,10.8301,10.8303,0.1166,210.343,55.535,56.323,,,,,,,,,,,,
CalCOFI,2105SH,006,,2105_006d,05-May-2021 10:18:56,05-May-2021 02:18:56,32.34852,-118.55477,093.3 045.0,093.3,045.0,45.000,45.322,,10.7865,,10.7867,,10.7866,33.8359,,33.8371,33.8313,,33.8332,33.8352,3.3865,,3.6077,3.5790,3.4030,,3.5842,3.5422,3.5606,147.423,156.6148,127.9474,148.142,164.3458,127.3763,127.6619,0.0657,,0.2663,0.1880,1.7433,,0.0000,,25.9080,,25.9044,,,,,,,,,,,10.7811,10.7813,0.1187,209.485,54.141,54.404,,,,,,,,,,,,
CalCOFI,2105SH,006,,2105_006d,05-May-2021 10:18:58,05-May-2021 02:18:58,32.34854,-118.55476,093.3 045.0,093.3,045.0,46.000,46.329,,10.7186,,10.7186,,10.7186,33.8408,,33.8420,33.8342,,33.8361,33.8391,3.2487,,3.4636,3.4325,3.2481,,3.4238,3.3797,3.4061,141.422,150.3414,123.2847,141.395,157.8647,122.1103,122.6975,0.0636,,0.2509,0.1808,1.7157,,0.0000,,25.9238,,25.9187,,,,,,,,,,,10.7131,10.7131,0.1208,208.000,51.865,51.852,,,,,,,,,,,,
CalCOFI,2105SH,006,,2105_006d,05-May-2021 10:19:00,05-May-2021 02:19:00,32.34854,-118.55476,093.3 045.0,093.3,045.0,47.000,47.337,,10.5780,,10.5773,,10.5777,33.8549,,33.8561,33.8435,,33.8454,33.8508,3.1282,,3.3376,3.3045,3.1502,,3.3224,3.2769,3.2907,136.172,144.8530,119.2055,137.130,152.1946,118.7815,118.9935,0.0607,,0.2295,0.1710,1.6911,,0.0000,,25.9595,,25.9507,,,,,,,,,,,10.5724,10.5717,0.1229,204.625,49.795,50.140,,,,,,,,,,,,
CalCOFI,2105SH,006,,2105_006d,05-May-2021 10:19:02,05-May-2021 02:19:02,32.34854,-118.55476,093.3 045.0,093.3,045.0,48.000,48.344,,10.4813,,10.4820,,10.4817,33.8591,,33.8603,33.8533,,33.8552,33.8578,3.0788,,3.2859,3.2520,3.1233,,3.2945,3.2487,3.2504,134.017,142.6002,117.5310,135.954,149.8672,117.8636,117.6973,0.0591,,0.2178,0.1655,1.6581,,0.0000,,25.9796,,25.9749,,,,,,,,,,,10.4756,10.4764,0.1249,202.729,48.907,49.613,,,,,,,,,,,,
CalCOFI,2105SH,006,,2105_006d,05-May-2021 10:19:05,05-May-2021 02:19:05,32.34854,-118.55476,093.3 045.0,093.3,045.0,49.000,49.351,,10.4537,,10.4538,,10.4538,33.8599,,33.8611,33.8571,,33.8590,33.8601,3.0266,,3.2313,3.1965,3.0901,,3.2601,3.2139,3.2052,131.743,140.2229,115.7642,134.510,147.4113,116.7365,116.2504,0.0594,,0.2200,0.1665,1.6129,,0.0000,,25.9850,,25.9828,,,,,,,,,,,10.4479,10.4480,0.1270,202.228,48.049,49.057,,,,,,,,,,,,
CalCOFI,2105SH,006,,2105_006d,05-May-2021 10:19:06,05-May-2021 02:19:06,32.34854,-118.55476,093.3 045.0,093.3,045.0,50.000,50.358,,10.4505,,10.4503,,10.4504,33.8607,,33.8619,33.8585,,33.8604,33.8612,3.0157,,3.2199,3.1849,3.0833,,3.2531,3.2067,3.1958,131.269,139.7274,115.3959,134.214,146.8994,116.5055,115.9507,0.0571,,0.2030,0.1587,1.5971,,0.0000,,25.9862,,25.9845,,,,,,,,,,,10.4446,10.4445,0.1290,202.138,47.873,48.946,,,,,,,,,,,,
CalCOFI,2105SH,006,,2105_006d,05-May-2021 10:19:07,05-May-2021 02:19:07,32.34854,-118.55476,093.3 045.0,093.3,045.0,51.000,51.366,,10.4478,,10.4478,,10.4478,33.8612,,33.8624,33.8593,,33.8612,33.8618,3.0124,,3.2165,3.1814,3.0752,,3.2447,3.1982,3.1898,131.126,139.5779,115.2848,133.860,146.7449,116.2292,115.7570,0.0595,,0.2207,0.1669,1.5826,,0.0000,,25.9871,,25.9856,,,,,,,,,,,10.4418,10.4418,0.1310,202.077,47.818,48.815,,,,,,,,,,,,
CalCOFI,2105SH,006,,2105_006d,05-May-2021 10:19:09,05-May-2021 02:19:09,32.34854,-118.55476,093.3 045.0,093.3,045.0,52.000,52.373,,10.4453,,10.4451,,10.4452,33.8616,,33.8628,33.8601,,33.8620,33.8624,3.0091,,3.2130,3.1779,3.0674,,3.2366,3.1901,3.1840,130.982,139.4274,115.1729,133.518,146.5894,115.9623,115.5676,0.0574,,0.2052,0.1597,1.5648,,0.0000,,25.9879,,25.9867,,,,,,,,,,,10.4392,10.4390,0.1331,202.030,47.763,48.687,52,10.420,,,137.46,0.288,0.276,21.83,0.108,0.00,1.75,23.04
CalCOFI,2105SH,006,,2105_006d,05-May-2021 10:19:11,05-May-2021 02:19:11,32.34856,-118.55475,093.3 045.0,093.3,045.0,53.000,53.380,,10.4431,,10.4427,,10.4429,33.8618,,33.8630,33.8607,,33.8626,33.8628,3.0080,,3.2119,3.1767,3.0604,,3.2294,3.1827,3.1797,130.935,139.3782,115.1363,133.217,146.5387,115.7274,115.4319,0.0582,,0.2111,0.1625,1.5493,,0.0000,,25.9884,,25.9876,,,,,,,,,,,10.4369,10.4365,0.1351,201.997,47.744,48.575,,,,,,,,,,,,
CalCOFI,2105SH,006,,2105_006d,05-May-2021 10:19:13,05-May-2021 02:19:13,32.34856,-118.55475,093.3 045.0,093.3,045.0,54.000,54.388,,10.4415,,10.4416,,10.4416,33.8620,,33.8632,33.8612,,33.8631,33.8632,2.9976,,3.2010,3.1656,3.0490,,3.2176,3.1707,3.1682,130.482,138.9047,114.7844,132.719,146.0494,115.3387,115.0616,0.0566,,0.1993,0.1570,1.5384,,0.0000,,25.9888,,25.9882,,,,,,,,,,,10.4352,10.4352,0.1371,201.981,47.577,48.393,,,,,,,,,,,,
CalCOFI,2105SH,006,,2105_006d,05-May-2021 10:19:15,05-May-2021 02:19:15,32.34856,-118.55476,093.3 045.0,093.3,045.0,55.000,55.395,,10.4397,,10.4398,,10.4398,33.8622,,33.8634,33.8615,,33.8634,33.8634,2.9914,,3.1945,3.1591,3.0407,,3.2090,3.1620,3.1606,130.213,138.6235,114.5754,132.360,145.7589,115.0585,114.8170,0.0573,,0.2045,0.1594,1.5337,,0.0000,,25.9894,,25.9888,,,,,,,,,,,10.4332,10.4333,0.1392,201.955,47.477,48.260,,,,,,,,,,,,